Time,TemperatureF,DewpointF,PressureIn,WindDirection,WindDirectionDegrees,WindSpeedMPH,WindSpeedGustMPH,Humidity,HourlyPrecipIn,Conditions,Clouds,dailyrainin,SoftwareType,DateUTC
2013-01-19 00:01:00,23.0,-6.0,29.50,North,7,0.0,0.0,27,0.00,,,0.00,VWS V14.01,2013-01-19 05:01:00,
2013-01-19 00:02:00,23.0,-6.0,29.50,ENE,75,0.0,3.6,27,0.00,,,0.00,VWS V14.01,2013-01-19 05:02:00,
2013-01-19 00:04:00,23.0,-7.6,29.50,ENE,75,0.0,0.0,25,0.00,,,0.00,VWS V14.01,2013-01-19 05:04:00,
2013-01-19 00:08:00,23.2,-7.4,29.50,NNE,28,0.0,0.0,25,0.00,,,0.00,VWS V14.01,2013-01-19 05:08:00,
2013-01-19 00:13:00,23.2,-5.8,29.50,North,8,0.0,0.0,27,0.00,,,0.00,VWS V14.01,2013-01-19 05:13:00,
2013-01-19 00:19:00,23.2,-5.8,29.50,North,2,0.0,0.0,27,0.00,,,0.00,VWS V14.01,2013-01-19 05:19:00,
2013-01-19 00:24:00,23.5,-5.5,29.50,NNE,26,0.0,0.0,27,0.00,,,0.00,VWS V14.01,2013-01-19 05:24:00,
2013-01-19 00:30:00,23.7,-5.4,29.50,NNE,23,0.0,0.0,27,0.00,,,0.00,VWS V14.01,2013-01-19 05:30:00,
2013-01-19 00:35:00,23.9,-5.2,29.50,NNE,23,0.0,0.0,27,0.00,,,0.00,VWS V14.01,2013-01-19 05:35:00,
2013-01-19 00:41:00,24.1,-3.6,29.50,NE,53,0.0,0.0,29,0.00,,,0.00,VWS V14.01,2013-01-19 05:41:00,
2013-01-19 00:46:00,24.3,-3.4,29.47,NNW,347,0.0,0.0,29,0.00,,,0.00,VWS V14.01,2013-01-19 05:46:00,
2013-01-19 00:52:00,24.4,-4.7,29.47,NW,316,0.0,4.5,27,0.00,,,0.00,VWS V14.01,2013-01-19 05:52:00,
2013-01-19 00:57:00,24.6,-4.6,29.47,North,6,0.0,0.0,27,0.00,,,0.00,VWS V14.01,2013-01-19 05:57:00,
2013-01-19 01:03:00,24.8,-4.4,29.47,SW,216,0.0,3.6,27,0.00,,,0.00,VWS V14.01,2013-01-19 06:03:00,
2013-01-19 01:09:00,24.8,-4.4,29.47,NNW,334,0.0,0.0,27,0.00,,,0.00,VWS V14.01,2013-01-19 06:09:00,
2013-01-19 01:14:00,25.0,-4.3,29.47,WSW,243,0.0,0.0,27,0.00,,,0.00,VWS V14.01,2013-01-19 06:14:00,
2013-01-19 01:20:00,25.2,-4.1,29.47,NNW,335,0.0,0.0,27,0.00,,,0.00,VWS V14.01,2013-01-19 06:20:00,
2013-01-19 01:25:00,25.3,-4.0,29.47,North,8,0.0,0.0,27,0.00,,,0.00,VWS V14.01,2013-01-19 06:25:00,
2013-01-19 01:31:00,25.5,-3.8,29.47,NE,51,0.0,0.0,27,0.00,,,0.00,VWS V14.01,2013-01-19 06:31:00,
2013-01-19 01:36:00,25.5,-3.8,29.47,NNW,333,3.6,3.6,27,0.00,,,0.00,VWS V14.01,2013-01-19 06:36:00,
2013-01-19 01:42:00,25.5,-3.8,29.47,NNW,347,0.0,0.0,27,0.00,,,0.00,VWS V14.01,2013-01-19 06:42:00,
2013-01-19 01:48:00,25.5,-3.8,29.47,NE,53,2.7,2.7,27,0.00,,,0.00,VWS V14.01,2013-01-19 06:48:00,
2013-01-19 01:53:00,25.7,-3.6,29.47,NNW,341,4.0,5.4,27,0.00,,,0.00,VWS V14.01,2013-01-19 06:53:00,
2013-01-19 01:59:00,25.7,-6.1,29.47,SSW,200,0.0,4.0,24,0.00,,,0.00,VWS V14.01,2013-01-19 06:59:00,
2013-01-19 02:04:00,25.7,-4.4,29.47,West,276,0.0,3.6,26,0.00,,,0.00,VWS V14.01,2013-01-19 07:04:00,
2013-01-19 02:10:00,25.7,-6.1,29.47,NNE,13,0.0,0.0,24,0.00,,,0.00,VWS V14.01,2013-01-19 07:10:00,
2013-01-19 02:15:00,25.7,-6.1,29.47,NE,41,0.0,0.0,24,0.00,,,0.00,VWS V14.01,2013-01-19 07:15:00,
2013-01-19 02:21:00,25.7,-6.1,29.47,NE,41,0.0,0.0,24,0.00,,,0.00,VWS V14.01,2013-01-19 07:21:00,
2013-01-19 02:26:00,25.5,-6.2,29.47,WNW,284,0.0,4.9,24,0.00,,,0.00,VWS V14.01,2013-01-19 07:26:00,
2013-01-19 02:32:00,25.5,-6.2,29.47,North,351,0.0,3.6,24,0.00,,,0.00,VWS V14.01,2013-01-19 07:32:00,
2013-01-19 02:38:00,25.3,-6.4,29.47,North,351,0.0,0.0,24,0.00,,,0.00,VWS V14.01,2013-01-19 07:38:00,
2013-01-19 02:43:00,25.2,-6.6,29.47,NE,43,0.0,3.6,24,0.00,,,0.00,VWS V14.01,2013-01-19 07:43:00,
2013-01-19 02:49:00,25.2,-6.6,29.47,NNW,347,0.0,0.0,24,0.00,,,0.00,VWS V14.01,2013-01-19 07:49:00,
2013-01-19 02:54:00,25.2,-6.6,29.47,North,5,6.3,6.3,24,0.00,,,0.00,VWS V14.01,2013-01-19 07:54:00,
2013-01-19 03:00:00,25.2,-6.6,29.47,North,351,0.0,0.0,24,0.00,,,0.00,VWS V14.01,2013-01-19 08:00:00,
2013-01-19 03:05:00,25.2,-6.6,29.47,North,351,0.0,0.0,24,0.00,,,0.00,VWS V14.01,2013-01-19 08:05:00,
2013-01-19 03:11:00,25.2,-6.6,29.47,NNW,340,0.0,0.0,24,0.00,,,0.00,VWS V14.01,2013-01-19 08:11:00,
2013-01-19 03:16:00,25.2,-6.6,29.47,NNW,332,0.0,0.0,24,0.00,,,0.00,VWS V14.01,2013-01-19 08:16:00,
2013-01-19 03:22:00,25.2,-6.6,29.47,NE,50,0.0,3.6,24,0.00,,,0.00,VWS V14.01,2013-01-19 08:22:00,
2013-01-19 03:28:00,25.2,-6.6,29.47,NW,316,0.0,0.0,24,0.00,,,0.00,VWS V14.01,2013-01-19 08:28:00,
2013-01-19 03:33:00,25.2,-6.6,29.44,North,351,0.0,0.0,24,0.00,,,0.00,VWS V14.01,2013-01-19 08:33:00,
2013-01-19 03:39:00,25.0,-4.3,29.44,NE,38,5.4,5.4,27,0.00,,,0.00,VWS V14.01,2013-01-19 08:39:00,
2013-01-19 03:44:00,25.0,-4.3,29.44,NNE,26,0.0,0.0,27,0.00,,,0.00,VWS V14.01,2013-01-19 08:44:00,
2013-01-19 03:50:00,25.0,-4.3,29.44,WSW,246,0.0,0.0,27,0.00,,,0.00,VWS V14.01,2013-01-19 08:50:00,
2013-01-19 03:55:00,25.2,-4.1,29.44,NNW,338,0.0,0.0,27,0.00,,,0.00,VWS V14.01,2013-01-19 08:55:00,
2013-01-19 04:01:00,25.2,-4.1,29.44,NNE,23,0.0,0.0,27,0.00,,,0.00,VWS V14.01,2013-01-19 09:01:00,
2013-01-19 04:06:00,25.2,-4.1,29.44,South,181,0.0,0.0,27,0.00,,,0.00,VWS V14.01,2013-01-19 09:06:00,
2013-01-19 04:12:00,25.2,-4.1,29.44,NNW,347,0.0,0.0,27,0.00,,,0.00,VWS V14.01,2013-01-19 09:12:00,
2013-01-19 04:18:00,25.2,-4.1,29.44,ESE,112,5.4,7.4,27,0.00,,,0.00,VWS V14.01,2013-01-19 09:18:00,
2013-01-19 04:23:00,25.2,-2.6,29.44,NNW,343,0.0,0.0,29,0.00,,,0.00,VWS V14.01,2013-01-19 09:23:00,
2013-01-19 04:29:00,25.5,-2.3,29.44,NE,45,0.0,4.9,29,0.00,,,0.00,VWS V14.01,2013-01-19 09:29:00,
2013-01-19 04:34:00,25.7,-2.2,29.41,NNE,12,0.0,0.0,29,0.00,,,0.00,VWS V14.01,2013-01-19 09:34:00,
2013-01-19 04:40:00,25.7,-2.2,29.41,NNW,341,0.0,0.0,29,0.00,,,0.00,VWS V14.01,2013-01-19 09:40:00,
2013-01-19 04:45:00,25.9,-2.0,29.41,North,0,0.0,3.6,29,0.00,,,0.00,VWS V14.01,2013-01-19 09:45:00,
2013-01-19 04:51:00,26.1,-1.8,29.41,NE,35,0.0,2.7,29,0.00,,,0.00,VWS V14.01,2013-01-19 09:51:00,
2013-01-19 04:57:00,26.2,-1.7,29.41,North,1,0.0,2.7,29,0.00,,,0.00,VWS V14.01,2013-01-19 09:57:00,
2013-01-19 05:02:00,26.2,-1.7,29.41,NW,326,0.0,3.6,29,0.00,,,0.00,VWS V14.01,2013-01-19 10:02:00,
2013-01-19 05:08:00,26.4,-0.1,29.41,NW,319,2.7,2.7,31,0.00,,,0.00,VWS V14.01,2013-01-19 10:08:00,
2013-01-19 05:13:00,26.4,-0.1,29.41,NW,315,3.6,6.9,31,0.00,,,0.00,VWS V14.01,2013-01-19 10:13:00,
2013-01-19 05:19:00,26.4,-0.1,29.41,WSW,258,0.0,0.0,31,0.00,,,0.00,VWS V14.01,2013-01-19 10:19:00,
2013-01-19 05:24:00,26.6,0.7,29.41,West,265,0.0,5.4,32,0.00,,,0.00,VWS V14.01,2013-01-19 10:24:00,
2013-01-19 05:30:00,26.6,0.7,29.38,ENE,67,0.0,0.0,32,0.00,,,0.00,VWS V14.01,2013-01-19 10:30:00,
2013-01-19 05:35:00,26.8,0.9,29.38,North,0,4.0,4.0,32,0.00,,,0.00,VWS V14.01,2013-01-19 10:35:00,
2013-01-19 05:42:00,26.8,0.9,29.38,NNE,21,0.0,0.0,32,0.00,,,0.00,VWS V14.01,2013-01-19 10:42:00,
2013-01-19 05:48:00,26.8,0.9,29.38,NNW,346,2.7,2.7,32,0.00,,,0.00,VWS V14.01,2013-01-19 10:48:00,
2013-01-19 05:53:00,26.8,0.9,29.38,NNW,346,0.0,6.7,32,0.00,,,0.00,VWS V14.01,2013-01-19 10:53:00,
2013-01-19 05:59:00,26.8,0.9,29.38,NNW,347,0.0,4.9,32,0.00,,,0.00,VWS V14.01,2013-01-19 10:59:00,
2013-01-19 06:04:00,27.0,1.7,29.38,WNW,284,0.0,4.0,33,0.00,,,0.00,VWS V14.01,2013-01-19 11:04:00,
2013-01-19 06:10:00,27.0,1.7,29.38,NNW,331,2.7,6.3,33,0.00,,,0.00,VWS V14.01,2013-01-19 11:10:00,
2013-01-19 07:48:00,28.0,6.3,29.38,NNW,340,0.0,3.1,39,0.00,,,0.00,VWS V14.01,2013-01-19 12:48:00,
2013-01-19 07:49:00,28.0,6.3,29.38,NE,42,0.0,2.7,39,0.00,,,0.00,VWS V14.01,2013-01-19 12:49:00,
2013-01-19 07:50:00,28.0,6.3,29.38,NNW,345,0.0,4.0,39,0.00,,,0.00,VWS V14.01,2013-01-19 12:50:00,
2013-01-19 07:55:00,28.0,6.3,29.38,SW,229,4.9,6.3,39,0.00,,,0.00,VWS V14.01,2013-01-19 12:55:00,
2013-01-19 08:02:00,28.0,6.3,29.38,WNW,300,0.0,0.0,39,0.00,,,0.00,VWS V14.01,2013-01-19 13:02:00,
2013-01-19 08:07:00,28.0,6.3,29.38,NNW,338,0.0,0.0,39,0.00,,,0.00,VWS V14.01,2013-01-19 13:07:00,
2013-01-19 08:13:00,28.4,6.6,29.38,NNW,347,0.0,3.1,39,0.00,,,0.00,VWS V14.01,2013-01-19 13:13:00,
2013-01-19 08:19:00,28.8,7.5,29.38,ENE,73,0.0,0.0,40,0.00,,,0.00,VWS V14.01,2013-01-19 13:19:00,
2013-01-19 08:24:00,29.5,7.0,29.38,NNE,14,0.0,4.0,38,0.00,,,0.00,VWS V14.01,2013-01-19 13:24:00,
2013-01-19 08:30:00,30.0,6.9,29.38,NNE,21,0.0,2.7,37,0.00,,,0.00,VWS V14.01,2013-01-19 13:30:00,
2013-01-19 08:35:00,30.6,7.4,29.38,WNW,291,0.0,5.4,37,0.00,,,0.00,VWS V14.01,2013-01-19 13:35:00,
2013-01-19 08:41:00,31.1,7.3,29.38,ESE,113,0.0,0.0,36,0.00,,,0.00,VWS V14.01,2013-01-19 13:41:00,
2013-01-19 08:46:00,31.6,7.1,29.38,West,268,0.0,6.3,35,0.00,,,0.00,VWS V14.01,2013-01-19 13:46:00,
2013-01-19 08:52:00,31.6,6.5,29.38,ESE,106,0.0,3.6,34,0.00,,,0.00,VWS V14.01,2013-01-19 13:52:00,
2013-01-19 08:57:00,31.6,6.5,29.38,SSW,208,0.0,2.7,34,0.00,,,0.00,VWS V14.01,2013-01-19 13:57:00,
2013-01-19 09:03:00,31.6,6.5,29.38,SE,145,0.0,6.9,34,0.00,,,0.00,VWS V14.01,2013-01-19 14:03:00,
2013-01-19 09:09:00,31.8,7.3,29.38,NW,317,0.0,0.0,35,0.00,,,0.00,VWS V14.01,2013-01-19 14:09:00,
2013-01-19 09:14:00,32.0,7.5,29.38,ENE,70,0.0,0.0,35,0.00,,,0.00,VWS V14.01,2013-01-19 14:14:00,
2013-01-19 09:20:00,32.2,7.6,29.38,NNW,333,0.0,0.0,35,0.00,,,0.00,VWS V14.01,2013-01-19 14:20:00,
2013-01-19 09:25:00,32.5,7.9,29.38,NNE,31,0.0,3.6,35,0.00,,,0.00,VWS V14.01,2013-01-19 14:25:00,
2013-01-19 09:31:00,32.9,8.3,29.38,NE,45,0.0,0.0,35,0.00,,,0.00,VWS V14.01,2013-01-19 14:31:00,
2013-01-19 09:36:00,33.1,7.8,29.38,SSE,150,0.0,0.0,34,0.00,,,0.00,VWS V14.01,2013-01-19 14:36:00,
2013-01-19 09:42:00,33.3,7.3,29.38,SE,130,0.0,6.7,33,0.00,,,0.00,VWS V14.01,2013-01-19 14:42:00,
2013-01-19 09:47:00,33.3,7.3,29.38,East,96,0.0,0.0,33,0.00,,,0.00,VWS V14.01,2013-01-19 14:47:00,
2013-01-19 09:53:00,33.6,7.6,29.38,East,88,0.0,0.0,33,0.00,,,0.00,VWS V14.01,2013-01-19 14:53:00,
2013-01-19 09:59:00,34.0,7.9,29.35,SSW,199,0.0,0.0,33,0.00,,,0.00,VWS V14.01,2013-01-19 14:59:00,
2013-01-19 10:04:00,34.3,8.2,29.35,ENE,67,0.0,0.0,33,0.00,,,0.00,VWS V14.01,2013-01-19 15:04:00,
2013-01-19 10:10:00,34.5,7.7,29.35,ENE,63,0.0,0.0,32,0.00,,,0.00,VWS V14.01,2013-01-19 15:10:00,
2013-01-19 10:15:00,34.5,7.7,29.35,NW,322,0.0,2.7,32,0.00,,,0.00,VWS V14.01,2013-01-19 15:15:00,
2013-01-19 10:21:00,34.9,8.0,29.35,West,272,0.0,0.0,32,0.00,,,0.00,VWS V14.01,2013-01-19 15:21:00,
2013-01-19 10:26:00,35.1,7.5,29.35,NW,304,0.0,0.0,31,0.00,,,0.00,VWS V14.01,2013-01-19 15:26:00,
2013-01-19 10:32:00,35.4,8.5,29.35,North,351,0.0,0.0,32,0.00,,,0.00,VWS V14.01,2013-01-19 15:32:00,
2013-01-19 10:37:00,35.6,8.0,29.35,NNW,331,2.7,2.7,31,0.00,,,0.00,VWS V14.01,2013-01-19 15:37:00,
2013-01-19 10:43:00,35.8,8.1,29.35,NE,44,0.0,0.0,31,0.00,,,0.00,VWS V14.01,2013-01-19 15:43:00,
2013-01-19 10:49:00,35.8,8.1,29.35,WSW,245,0.0,6.3,31,0.00,,,0.00,VWS V14.01,2013-01-19 15:49:00,
2013-01-19 10:54:00,36.1,8.4,29.35,South,181,0.0,0.0,31,0.00,,,0.00,VWS V14.01,2013-01-19 15:54:00,
2013-01-19 11:00:00,36.5,8.8,29.35,WSW,250,0.0,4.9,31,0.00,,,0.00,VWS V14.01,2013-01-19 16:00:00,
2013-01-19 11:05:00,36.7,8.2,29.35,South,180,0.0,0.0,30,0.00,,,0.00,VWS V14.01,2013-01-19 16:05:00,
2013-01-19 11:12:00,36.9,8.3,29.35,SW,219,0.0,0.0,30,0.00,,,0.00,VWS V14.01,2013-01-19 16:12:00,
2013-01-19 11:17:00,37.0,8.5,29.32,South,174,0.0,0.0,30,0.00,,,0.00,VWS V14.01,2013-01-19 16:17:00,
2013-01-19 11:23:00,37.4,8.8,29.32,SSE,151,0.0,0.0,30,0.00,,,0.00,VWS V14.01,2013-01-19 16:23:00,
2013-01-19 11:29:00,37.6,9.0,29.32,SSW,195,0.0,0.0,30,0.00,,,0.00,VWS V14.01,2013-01-19 16:29:00,
2013-01-19 11:34:00,37.4,8.8,29.32,ENE,59,0.0,0.0,30,0.00,,,0.00,VWS V14.01,2013-01-19 16:34:00,
2013-01-19 11:40:00,37.6,9.0,29.32,South,181,0.0,0.0,30,0.00,,,0.00,VWS V14.01,2013-01-19 16:40:00,
2013-01-19 11:45:00,37.8,8.4,29.29,WSW,249,3.6,3.6,29,0.00,,,0.00,VWS V14.01,2013-01-19 16:45:00,
2013-01-19 11:51:00,37.9,9.3,29.29,WSW,239,0.0,0.0,30,0.00,,,0.00,VWS V14.01,2013-01-19 16:51:00,
2013-01-19 11:56:00,37.9,9.3,29.29,South,170,0.0,0.0,30,0.00,,,0.00,VWS V14.01,2013-01-19 16:56:00,
2013-01-19 12:02:00,37.9,9.3,29.29,SW,223,0.0,0.0,30,0.00,,,0.00,VWS V14.01,2013-01-19 17:02:00,
2013-01-19 12:07:00,37.9,9.3,29.29,SE,139,0.0,4.0,30,0.00,,,0.00,VWS V14.01,2013-01-19 17:07:00,
2013-01-19 12:13:00,38.1,9.4,29.29,WSW,244,5.4,5.4,30,0.00,,,0.00,VWS V14.01,2013-01-19 17:13:00,
2013-01-19 12:19:00,38.3,8.8,29.26,WSW,251,0.0,0.0,29,0.00,,,0.00,VWS V14.01,2013-01-19 17:19:00,
2013-01-19 12:24:00,38.7,9.2,29.26,SW,236,2.7,3.1,29,0.00,,,0.00,VWS V14.01,2013-01-19 17:24:00,
2013-01-19 12:30:00,38.8,9.3,29.26,SSE,164,0.0,0.0,29,0.00,,,0.00,VWS V14.01,2013-01-19 17:30:00,
2013-01-19 12:35:00,39.0,9.5,29.26,SW,229,0.0,4.0,29,0.00,,,0.00,VWS V14.01,2013-01-19 17:35:00,
2013-01-19 12:42:00,39.2,9.6,29.26,North,9,0.0,0.0,29,0.00,,,0.00,VWS V14.01,2013-01-19 17:42:00,
2013-01-19 12:47:00,39.2,9.6,29.23,North,0,0.0,0.0,29,0.00,,,0.00,VWS V14.01,2013-01-19 17:47:00,
2013-01-19 12:53:00,39.2,9.6,29.23,ESE,114,0.0,0.0,29,0.00,,,0.00,VWS V14.01,2013-01-19 17:53:00,
2013-01-19 12:59:00,39.4,9.8,29.23,WSW,244,0.0,0.0,29,0.00,,,0.00,VWS V14.01,2013-01-19 17:59:00,
2013-01-19 13:04:00,39.6,9.9,29.23,North,351,0.0,3.1,29,0.00,,,0.00,VWS V14.01,2013-01-19 18:04:00,
2013-01-19 13:10:00,39.7,10.1,29.23,ESE,112,0.0,0.0,29,0.00,,,0.00,VWS V14.01,2013-01-19 18:10:00,
2013-01-19 13:15:00,39.7,10.1,29.23,NNW,336,0.0,0.0,29,0.00,,,0.00,VWS V14.01,2013-01-19 18:15:00,
2013-01-19 13:22:00,39.7,9.3,29.23,North,351,0.0,0.0,28,0.00,,,0.00,VWS V14.01,2013-01-19 18:22:00,
2013-01-19 13:29:00,39.6,9.9,29.23,SW,231,0.0,0.0,29,0.00,,,0.00,VWS V14.01,2013-01-19 18:29:00,
2013-01-19 13:34:00,39.4,9.8,29.23,NW,313,0.0,0.0,29,0.00,,,0.00,VWS V14.01,2013-01-19 18:34:00,
2013-01-19 13:40:00,39.4,9.8,29.23,North,9,0.0,0.0,29,0.00,,,0.00,VWS V14.01,2013-01-19 18:40:00,
2013-01-19 13:46:00,39.4,9.8,29.23,WNW,286,0.0,3.1,29,0.00,,,0.00,VWS V14.01,2013-01-19 18:46:00,
2013-01-19 13:53:00,39.4,9.0,29.23,NNW,343,0.0,0.0,28,0.00,,,0.00,VWS V14.01,2013-01-19 18:53:00,
2013-01-19 14:02:00,39.4,9.8,29.21,NE,47,0.0,0.0,29,0.00,,,0.00,VWS V14.01,2013-01-19 19:02:00,
2013-01-19 14:08:00,39.4,9.0,29.21,ENE,60,0.0,0.0,28,0.00,,,0.00,VWS V14.01,2013-01-19 19:08:00,
2013-01-19 14:13:00,39.7,10.1,29.21,NNE,16,0.0,0.0,29,0.00,,,0.00,VWS V14.01,2013-01-19 19:13:00,
2013-01-19 14:19:00,39.7,9.3,29.23,NNW,345,0.0,0.0,28,0.00,,,0.00,VWS V14.01,2013-01-19 19:19:00,
2013-01-19 14:24:00,40.1,9.6,29.23,North,0,0.0,0.0,28,0.00,,,0.00,VWS V14.01,2013-01-19 19:24:00,
2013-01-19 14:30:00,39.9,9.5,29.21,North,0,0.0,0.0,28,0.00,,,0.00,VWS V14.01,2013-01-19 19:30:00,
2013-01-19 14:35:00,39.9,9.5,29.21,NNW,346,0.0,0.0,28,0.00,,,0.00,VWS V14.01,2013-01-19 19:35:00,
2013-01-19 14:42:00,39.9,9.5,29.21,East,83,0.0,0.0,28,0.00,,,0.00,VWS V14.01,2013-01-19 19:42:00,
2013-01-19 14:48:00,39.7,9.3,29.21,WSW,238,0.0,0.0,28,0.00,,,0.00,VWS V14.01,2013-01-19 19:48:00,
2013-01-19 14:53:00,39.7,9.3,29.21,North,6,0.0,0.0,28,0.00,,,0.00,VWS V14.01,2013-01-19 19:53:00,
2013-01-19 14:59:00,39.9,9.5,29.21,North,4,0.0,0.0,28,0.00,,,0.00,VWS V14.01,2013-01-19 19:59:00,
2013-01-19 15:05:00,39.9,9.5,29.21,North,351,0.0,0.0,28,0.00,,,0.00,VWS V14.01,2013-01-19 20:05:00,
2013-01-19 15:12:00,39.9,9.5,29.21,WSW,237,0.0,0.0,28,0.00,,,0.00,VWS V14.01,2013-01-19 20:12:00,
2013-01-19 15:22:00,40.1,9.6,29.21,West,269,0.0,3.1,28,0.00,,,0.00,VWS V14.01,2013-01-19 20:22:00,
2013-01-19 15:28:00,40.1,9.6,29.21,NNE,31,0.0,0.0,28,0.00,,,0.00,VWS V14.01,2013-01-19 20:28:00,
2013-01-19 15:33:00,39.9,9.5,29.21,WNW,299,0.0,0.0,28,0.00,,,0.00,VWS V14.01,2013-01-19 20:33:00,
2013-01-19 15:39:00,39.9,9.5,29.21,NE,54,0.0,0.0,28,0.00,,,0.00,VWS V14.01,2013-01-19 20:39:00,
2013-01-19 15:44:00,39.7,9.3,29.21,NW,320,0.0,0.0,28,0.00,,,0.00,VWS V14.01,2013-01-19 20:44:00,
2013-01-19 15:49:00,39.7,7.7,29.21,North,351,0.0,0.0,26,0.00,,,0.00,VWS V14.01,2013-01-19 20:49:00,
2013-01-19 15:54:00,39.7,9.3,29.21,SE,133,0.0,0.0,28,0.00,,,0.00,VWS V14.01,2013-01-19 20:54:00,
2013-01-19 16:00:00,39.4,9.0,29.21,WNW,291,0.0,0.0,28,0.00,,,0.00,VWS V14.01,2013-01-19 21:00:00,
2013-01-19 16:05:00,39.4,9.0,29.21,SE,135,0.0,0.0,28,0.00,,,0.00,VWS V14.01,2013-01-19 21:05:00,
2013-01-19 16:12:00,39.0,8.7,29.21,NNE,24,0.0,0.0,28,0.00,,,0.00,VWS V14.01,2013-01-19 21:12:00,
2013-01-19 16:18:00,38.8,8.5,29.21,NNE,24,0.0,0.0,28,0.00,,,0.00,VWS V14.01,2013-01-19 21:18:00,
2013-01-19 16:23:00,38.7,9.2,29.21,NNE,24,0.0,0.0,29,0.00,,,0.00,VWS V14.01,2013-01-19 21:23:00,
2013-01-19 16:29:00,38.7,9.2,29.21,NNE,24,0.0,0.0,29,0.00,,,0.00,VWS V14.01,2013-01-19 21:29:00,
2013-01-19 16:34:00,38.7,9.2,29.21,NNE,25,0.0,0.0,29,0.00,,,0.00,VWS V14.01,2013-01-19 21:34:00,
2013-01-19 16:43:00,38.5,9.0,29.21,NNE,24,0.0,0.0,29,0.00,,,0.00,VWS V14.01,2013-01-19 21:43:00,
2013-01-19 16:49:00,38.3,8.8,29.18,NNE,25,0.0,0.0,29,0.00,,,0.00,VWS V14.01,2013-01-19 21:49:00,
2013-01-19 16:55:00,38.1,8.7,29.18,NNE,25,0.0,0.0,29,0.00,,,0.00,VWS V14.01,2013-01-19 21:55:00,
2013-01-19 17:02:00,37.9,8.5,29.18,NNE,24,0.0,0.0,29,0.00,,,0.00,VWS V14.01,2013-01-19 22:02:00,
2013-01-19 17:08:00,37.8,8.4,29.18,NNE,24,0.0,0.0,29,0.00,,,0.00,VWS V14.01,2013-01-19 22:08:00,
2013-01-19 17:13:00,37.8,8.4,29.18,NNE,24,0.0,0.0,29,0.00,,,0.00,VWS V14.01,2013-01-19 22:13:00,
2013-01-19 17:19:00,37.6,9.0,29.18,NNE,24,0.0,0.0,30,0.00,,,0.00,VWS V14.01,2013-01-19 22:19:00,
2013-01-19 17:24:00,37.4,8.8,29.18,NNE,24,0.0,0.0,30,0.00,,,0.00,VWS V14.01,2013-01-19 22:24:00,
2013-01-19 17:30:00,37.4,8.8,29.18,NNE,24,0.0,0.0,30,0.00,,,0.00,VWS V14.01,2013-01-19 22:30:00,
2013-01-19 17:35:00,37.4,8.8,29.18,NNE,24,0.0,0.0,30,0.00,,,0.00,VWS V14.01,2013-01-19 22:35:00,
2013-01-19 17:42:00,37.2,8.6,29.18,NNE,24,0.0,0.0,30,0.00,,,0.00,VWS V14.01,2013-01-19 22:42:00,
2013-01-19 17:47:00,37.0,8.5,29.18,NNE,24,0.0,0.0,30,0.00,,,0.00,VWS V14.01,2013-01-19 22:47:00,
2013-01-19 17:53:00,37.0,9.2,29.18,NNE,24,0.0,0.0,31,0.00,,,0.00,VWS V14.01,2013-01-19 22:53:00,
2013-01-19 17:59:00,37.0,9.2,29.18,NNE,24,0.0,0.0,31,0.00,,,0.00,VWS V14.01,2013-01-19 22:59:00,
2013-01-19 18:05:00,37.0,9.2,29.18,NNE,24,0.0,0.0,31,0.00,,,0.00,VWS V14.01,2013-01-19 23:05:00,
2013-01-19 18:11:00,37.0,9.2,29.18,NNE,25,0.0,0.0,31,0.00,,,0.00,VWS V14.01,2013-01-19 23:11:00,
2013-01-19 18:17:00,37.0,9.2,29.18,NNE,25,0.0,0.0,31,0.00,,,0.00,VWS V14.01,2013-01-19 23:17:00,
2013-01-19 18:22:00,37.0,9.2,29.18,NNE,24,0.0,0.0,31,0.00,,,0.00,VWS V14.01,2013-01-19 23:22:00,
2013-01-19 18:28:00,37.0,9.9,29.18,NNE,24,0.0,0.0,32,0.00,,,0.00,VWS V14.01,2013-01-19 23:28:00,
2013-01-19 18:33:00,37.0,9.9,29.18,NNE,25,0.0,0.0,32,0.00,,,0.00,VWS V14.01,2013-01-19 23:33:00,
2013-01-19 18:39:00,37.0,9.9,29.18,NNE,25,0.0,0.0,32,0.00,,,0.00,VWS V14.01,2013-01-19 23:39:00,
2013-01-19 18:44:00,37.0,9.2,29.18,NNE,25,0.0,0.0,31,0.00,,,0.00,VWS V14.01,2013-01-19 23:44:00,
2013-01-19 18:50:00,37.0,9.9,29.18,NNE,24,0.0,0.0,32,0.00,,,0.00,VWS V14.01,2013-01-19 23:50:00,
2013-01-19 18:56:00,37.0,9.9,29.18,NNE,24,0.0,0.0,32,0.00,,,0.00,VWS V14.01,2013-01-19 23:56:00,
2013-01-19 19:02:00,37.4,10.2,29.18,NNE,24,0.0,0.0,32,0.00,,,0.00,VWS V14.01,2013-01-20 00:02:00,
2013-01-19 19:08:00,37.8,9.9,29.18,East,85,0.0,0.0,31,0.00,,,0.00,VWS V14.01,2013-01-20 00:08:00,
2013-01-19 19:13:00,38.1,10.2,29.18,ESE,104,0.0,0.0,31,0.00,,,0.00,VWS V14.01,2013-01-20 00:13:00,
2013-01-19 19:19:00,38.1,10.2,29.15,NNW,337,0.0,0.0,31,0.00,,,0.00,VWS V14.01,2013-01-20 00:19:00,
2013-01-19 19:24:00,38.5,9.8,29.15,NNE,23,0.0,0.0,30,0.00,,,0.00,VWS V14.01,2013-01-20 00:24:00,
2013-01-19 19:32:00,38.7,9.9,29.15,NE,39,0.0,0.0,30,0.00,,,0.00,VWS V14.01,2013-01-20 00:32:00,
2013-01-19 19:38:00,38.8,10.1,29.15,NNE,16,0.0,0.0,30,0.00,,,0.00,VWS V14.01,2013-01-20 00:38:00,
2013-01-19 19:46:00,39.0,10.2,29.15,NNW,327,0.0,0.0,30,0.00,,,0.00,VWS V14.01,2013-01-20 00:46:00,
2013-01-19 19:51:00,39.4,10.5,29.15,WNW,297,0.0,0.0,30,0.00,,,0.00,VWS V14.01,2013-01-20 00:51:00,
2013-01-19 19:57:00,39.4,10.5,29.15,WSW,248,0.0,0.0,30,0.00,,,0.00,VWS V14.01,2013-01-20 00:57:00,
2013-01-19 20:02:00,39.4,10.5,29.15,North,351,0.0,0.0,30,0.00,,,0.00,VWS V14.01,2013-01-20 01:02:00,
2013-01-19 20:08:00,39.7,10.1,29.15,WSW,258,0.0,2.7,29,0.00,,,0.00,VWS V14.01,2013-01-20 01:08:00,
2013-01-19 20:13:00,39.7,10.1,29.15,North,351,0.0,0.0,29,0.00,,,0.00,VWS V14.01,2013-01-20 01:13:00,
2013-01-19 20:19:00,39.6,10.7,29.15,NNW,333,0.0,0.0,30,0.00,,,0.00,VWS V14.01,2013-01-20 01:19:00,
2013-01-19 20:24:00,39.9,10.2,29.15,South,191,3.1,4.0,29,0.00,,,0.00,VWS V14.01,2013-01-20 01:24:00,
2013-01-19 20:30:00,39.9,10.2,29.12,NW,305,0.0,0.0,29,0.00,,,0.00,VWS V14.01,2013-01-20 01:30:00,
2013-01-19 20:35:00,40.3,10.6,29.12,NNE,16,0.0,0.0,29,0.00,,,0.00,VWS V14.01,2013-01-20 01:35:00,
2013-01-19 20:41:00,40.1,10.4,29.12,NNW,343,0.0,4.5,29,0.00,,,0.00,VWS V14.01,2013-01-20 01:41:00,
2013-01-19 20:50:00,39.9,10.2,29.12,West,276,0.0,0.0,29,0.00,,,0.00,VWS V14.01,2013-01-20 01:50:00,
2013-01-19 20:57:00,39.9,11.0,29.12,SW,228,0.0,0.0,30,0.00,,,0.00,VWS V14.01,2013-01-20 01:57:00,
2013-01-19 21:04:00,40.1,11.2,29.12,WNW,296,0.0,4.0,30,0.00,,,0.00,VWS V14.01,2013-01-20 02:04:00,
2013-01-19 21:09:00,39.9,11.0,29.12,NNE,14,0.0,0.0,30,0.00,,,0.00,VWS V14.01,2013-01-20 02:09:00,
2013-01-19 21:14:00,39.7,10.9,29.12,NNW,345,0.0,0.0,30,0.00,,,0.00,VWS V14.01,2013-01-20 02:14:00,
2013-01-19 21:20:00,39.6,10.7,29.12,ENE,65,0.0,0.0,30,0.00,,,0.00,VWS V14.01,2013-01-20 02:20:00,
2013-01-19 21:25:00,39.4,10.5,29.12,NNE,27,0.0,0.0,30,0.00,,,0.00,VWS V14.01,2013-01-20 02:25:00,
2013-01-19 21:31:00,39.4,10.5,29.12,SE,134,0.0,0.0,30,0.00,,,0.00,VWS V14.01,2013-01-20 02:31:00,
2013-01-19 21:38:00,39.2,10.4,29.12,NNW,345,0.0,0.0,30,0.00,,,0.00,VWS V14.01,2013-01-20 02:38:00,
2013-01-19 21:43:00,39.2,11.1,29.12,ESE,104,0.0,0.0,31,0.00,,,0.00,VWS V14.01,2013-01-20 02:43:00,
2013-01-19 21:49:00,39.2,11.1,29.12,SW,228,0.0,0.0,31,0.00,,,0.00,VWS V14.01,2013-01-20 02:49:00,
2013-01-19 21:55:00,39.0,11.0,29.12,North,8,0.0,0.0,31,0.00,,,0.00,VWS V14.01,2013-01-20 02:55:00,
2013-01-19 22:01:00,38.8,11.5,29.09,SSE,155,0.0,0.0,32,0.00,,,0.00,VWS V14.01,2013-01-20 03:01:00,
2013-01-19 22:09:00,39.0,11.0,29.09,SE,132,0.0,0.0,31,0.00,,,0.00,VWS V14.01,2013-01-20 03:09:00,
2013-01-19 22:15:00,39.2,11.1,29.09,South,171,0.0,4.0,31,0.00,,,0.00,VWS V14.01,2013-01-20 03:15:00,
2013-01-19 22:21:00,39.0,11.0,29.09,East,83,0.0,2.7,31,0.00,,,0.00,VWS V14.01,2013-01-20 03:21:00,
2013-01-19 22:28:00,38.8,10.8,29.09,NW,325,0.0,4.9,31,0.00,,,0.00,VWS V14.01,2013-01-20 03:28:00,
2013-01-19 22:33:00,38.7,11.4,29.09,WNW,288,0.0,0.0,32,0.00,,,0.00,VWS V14.01,2013-01-20 03:33:00,
2013-01-19 22:39:00,38.8,10.8,29.09,North,8,0.0,4.0,31,0.00,,,0.00,VWS V14.01,2013-01-20 03:39:00,
2013-01-19 22:44:00,39.0,11.0,29.09,NNW,329,0.0,0.0,31,0.00,,,0.00,VWS V14.01,2013-01-20 03:44:00,
2013-01-19 22:50:00,39.2,10.4,29.09,North,351,0.0,0.0,30,0.00,,,0.00,VWS V14.01,2013-01-20 03:50:00,
2013-01-19 22:56:00,39.0,11.0,29.09,WNW,283,0.0,2.7,31,0.00,,,0.00,VWS V14.01,2013-01-20 03:56:00,
2013-01-19 23:04:00,38.8,10.8,29.06,NE,47,0.0,2.7,31,0.00,,,0.00,VWS V14.01,2013-01-20 04:04:00,
2013-01-19 23:09:00,38.8,10.8,29.06,NNW,337,0.0,0.0,31,0.00,,,0.00,VWS V14.01,2013-01-20 04:09:00,
2013-01-19 23:14:00,38.7,11.4,29.06,NE,44,0.0,0.0,32,0.00,,,0.00,VWS V14.01,2013-01-20 04:14:00,
2013-01-19 23:20:00,38.7,10.6,29.06,SSE,160,0.0,0.0,31,0.00,,,0.00,VWS V14.01,2013-01-20 04:20:00,
2013-01-19 23:27:00,38.7,11.4,29.06,NNW,339,0.0,2.7,32,0.00,,,0.00,VWS V14.01,2013-01-20 04:27:00,
2013-01-19 23:32:00,38.7,11.4,29.06,SSW,193,0.0,0.0,32,0.00,,,0.00,VWS V14.01,2013-01-20 04:32:00,
2013-01-19 23:38:00,38.7,11.4,29.06,NE,49,0.0,0.0,32,0.00,,,0.00,VWS V14.01,2013-01-20 04:38:00,
2013-01-19 23:43:00,38.5,11.2,29.06,South,180,0.0,0.0,32,0.00,,,0.00,VWS V14.01,2013-01-20 04:43:00,
2013-01-19 23:49:00,38.5,11.9,29.06,NW,307,0.0,0.0,33,0.00,,,0.00,VWS V14.01,2013-01-20 04:49:00,
2013-01-19 23:54:00,38.3,11.7,29.06,SE,132,0.0,3.1,33,0.00,,,0.00,VWS V14.01,2013-01-20 04:54:00,